Location: �quirre
(50.4736°N, 2.2351°E)
Time: 21:27:43
(UTC+00:00)

Cosmos 1470 - Pass Details

Date: 07 August 2020
Orbit: 520 x 543 km, 82.5° (Epoch: 21 September)

Event Time Altitude Azimuth Distance (km) Brightness Sun altitude
Exits shadow 02:41:40 18° 182° (S) 1,386 4.4 -14.1°
Maximum altitude 02:44:35 77° 98° (E) 561 2.9 -13.8°
Drops below altitude 10° 02:48:35 10° 13° (NNE) 1,820 6.5 -13.3°
Sets 02:50:46 0° 12° (NNE) 2,720 7.5 -13.1°
